Погода в Целле

Германия     52°37′22″N   10°04′26″E
темп.,
°C
ветер,
м/с
пор.,
м/с
влажн.,
%
обл.,
%
осадки,
мм/ч
давл.,
гПа
погр.,
м
14 мая, пт
пт1423:00+10сз1196100 0.4 100624
02:00+10зсз2497100 0.6 1006143
05:00+9зсз2598100 0.1 1005211
08:00+9з3695100 0.4 1006296
11:00+12з4681100 0.4 1007631
14:00+15зсз4658100 0.4 10061584
17:00+15зсз465998 0.2 10061358
20:00+13ссз257617 0.2 1006178
15 мая, сб
сб1523:00+8в11940 0.0 100812
02:00+7юв11954 0.0 100711
05:00+7ю22945 0.0 100621
08:00+10ююз348373 0.1 1006257
11:00+14ююз456654 0.1 10051290
14:00+14юз676996 1.4 10041468
17:00+14юз577391 0.9 10031190
20:00+11юз3689100 2.1 1003273
16 мая, вс
вс1623:00+9ю3894100 0.3 1003290
02:00+9ююз3895100 0.5 1003419
05:00+8ююз379580 0.3 1003269
08:00+9ююз389299 0.6 1003386
11:00+13юз576854 0.3 10031354
14:00+15юз6860100 1.5 10021859
17:00+14зюз5670100 1.3 10021151
20:00+11зюз3788100 3.1 1002285
17 мая, пн
пн1723:00+8юз379638 0.7 1003180
02:00+7ююз3596100 0.7 100386
05:00+7ююз3894100 0.0 1002232
08:00+8ю389588 0.5 1003337
11:00+11юз5108896 0.8 10031017
14:00+13юз7108197 1.8 10031320
17:00+12юз7118587 1.3 10041193
20:00+11юз5118566 1.8 1004798
18 мая, вт
вт1823:00+9юз51288100 0.1 1005563
02:00+8юз4119528 0.1 1005410
05:00+7зюз399852 0.0 1006313
08:00+10зюз4891100 0.1 1008727
11:00+10юз5991100 0.3 1008774
14:00+8з81393100 1.9 1010961
17:00+12з6108543 1.0 10101201
20:00+10зюз4988100 2.3 1010431